DECAYED

STARLINK-4301, 52997 (Decayed)

Orbit data source: Space-Track

STARLINK-4301, 52997 was a payload satellite owned by SpaceX/Seattle (US) in LEO that was launched on Thu, 07 Jul 2022 UTC via an FALCON 9 launch vehicle from the Air Force Eastern Test Range (AFETR). Payload-class satellites include a variety of spacecraft equipped with specific instruments for various scientific and technological missions. These include communications satellites like Starlink; space stations such as the ISS; scientific satellites like the Hubble; Earth observation satellites from companies like Planet Labs, Umbra, and HawkEye 360; GPS; miniature CubeSats for education and research; and military/defense satellites.

Not visible in the next 10 days
Identifier
52997, 2022-076M
Orbit
Decayed
Country
Flag of USUS
Related business
Manufacturer
SpaceX/Seattle
Mission
Decayed Commercial Communications
Bus & Motor
STARLINK, Unknown motor
Mass
297 kg wet, ~275 kg dry
Launch date (UTC)
2022-07-07 (4 years ago)
Launch vehicle
FALCON 9
Launch site
Air Force Eastern Test Range (AFETR)
Object type
Payload
Rocket body
Debris
Shape & HBR
Box + 1 Pan, 10.1 m
Radar Cross Section
13.562 m², Large (>1 m²)

Expand to show TLE details & history
Last TLE update: 1 year ago

TLE from 1 year ago
0 STARLINK-4301
1 52997U 22076M   25035.87630124  .19724944  12460-4  30925-3 0  9994
2 52997  53.1934 307.9691 0007952 218.4626 184.7832 16.47851716145140
Epoch: 2025-02-04T21:01Z
TLE epoch observation values (Epoch: 2025-02-04T21:01:52.427Z)
Latitude
33.3746°
Longitude
-113.42893°
Altitude
152.445 km
Speed
7.816 km/s
True Right ascension
22h 29m 15s
True Declination
33° 12' 08"
Sunlit
Object was in daylight at epoch
Visualization orbit readout
Latitude
Unknown
Longitude
Unknown
Altitude
Unknown
Speed
Unknown
Apparent Right ascension
Unknown
Apparent Declination
Unknown
Sunlit
N/A
Visualization observer readout
Local Sidereal Time
21:40:22
Azimuth
Unknown
Elevation
Unknown
Doppler factor
Unknown
Orbital elements
Apogee altitude
150.45 km
Perigee altitude
140.075 km
Semi-major axis
6,523.399 km
Eccentricity
0.0008
Inclination
53.1934°
RAAN
307.9691°
Arg. of periapsis
218.4626°
True anomaly
184.77561°
Mean anomaly
184.7832°
Eccentric anomaly
184.7794°
Mean motion
4.11938 °/min
Orbital period
87.39 mins
BSTAR
0.00030925
Loading maneuver chart data...
Computing Atmospheric mass density...
Loading historical data...
Loading historical data...
Loading historical data...
Loading historical data...
Loading historical data...
Loading historical data...
Loading historical data...

Documentation

Showing up to 5 results
|